Find Starlink 1255

NORAD ID: 45399 Int'l Des: 2020-019 Owner: SPXS Country: US Constellation: starlink operational
LEOCIRCULAR

現在のビュー

3D地球を読み込み中...

About Starlink 1255

Starlink 1255 (NORAD 45399) is a starlink constellation satellite (v1.0) launched Mar 18, 2020 by SPXS of US. It operates in LEO, CIRCULAR orbit with a mass of 260.00 kg.

次回通過

Passes for default location (London). Set your location on the main map for personalized predictions.

高度履歴

Loading altitude history...

軌道要素

1 45399U 20019AR 26263.50879423 .00068283 00000-0 41387-3 0 9992
2 45399 53.0316 225.3570 0005880 85.1741 274.9949 15.76922459360958
Epoch: Sep 20, 2026 • Age: 12 hours

現在のステータス

高度 341.6 km
遠地点 / 近地点 N/A
速度 7.70 km/s
衛星直下点 -7.71°S, 147.96°W
打ち上げ日 Mar 18, 2020
運用期間 6.5 years
タイプ internet

技術仕様

分類 Payload
質量 260.00 kg
乾燥質量 248.00 kg
長さ 0.20 m
スパン 9.00 m
形状 ? Box + pan
製造者 SPXS
バスタイプ Starlink
フェーズステータス In Orbit
所有者/国 SPXS/US

Most Searched